Weather History for KF05 - December, 2012

Change the Weather History Date:

Saturday, December 1, 2012

  Actual Average (KLTS) Record (KLTS)
Temperature  
Mean Temperature 68 °F -  
Max Temperature 84 °F 55 °F 82 °F (2012)
Min Temperature 53 °F 33 °F 6 °F (2006)
Cooling Degree Days 4    
Growing Degree Days 18 (Base 50)    
Moisture  
Dew Point 42 °F    
Average Humidity 48    
Maximum Humidity 85    
Minimum Humidity 16    
Precipitation  
Precipitation 0.00 in - - ()
Sea Level Pressure  
Sea Level Pressure 29.91 in    
Wind  
Wind Speed 15 mph (SSW)    
Max Wind Speed 26 mph    
Max Gust Speed 34 mph    
Visibility 10 miles    
Events      
Averages and records for this station are not official NWS values.
T = Trace of Precipitation, MM = Missing Value Source: NWS Daily Summary

Daily Weather History Graph

Daily Weather History Graph

Search for Another Location

Airport or City:

Trip Planner

Search our weather history database for the weather conditions in past years. The results will help you decide how hot, cold, wet, or windy it might be!

Date:

Astronomy

Dec. 01, 2012 Rise Set
Actual Time 7:25 AM CST 5:27 PM CST
Civil Twilight 6:57 AM CST 5:54 PM CST
Nautical Twilight 6:26 AM CST 6:25 PM CST
Astronomical Twilight 5:56 AM CST 6:56 PM CST
Moon 8:16 PM CST (12/1) 9:40 AM CST (12/1)
Length of Visible Light 10h 56m
Length of Day
10h 01m
Waning Gibbous, 91% of the Moon is Illuminated
Dec 1
Waning Gibbous
Dec 6
Last Quarter
Dec 13
New
Dec 19
First Quarter
Dec 28
Full

Hourly Weather History & Observations

Time (CST) Temp. Dew Point Humidity Pressure Visibility Wind Dir Wind Speed Gust Speed Precip Events Conditions
12:15 AM 55.2 °F 45.9 °F 71% 29.94 in 10.0 mi South 11.5 mph - N/A   Clear
12:35 AM 55.8 °F 46.4 °F 71% 29.94 in 10.0 mi South 12.7 mph - N/A   Clear
12:55 AM 57.6 °F 47.1 °F 68% 29.94 in 10.0 mi South 12.7 mph - N/A   Clear
1:15 AM 58.3 °F 47.5 °F 67% 29.94 in 10.0 mi SSW 11.5 mph - N/A   Clear
1:35 AM 58.1 °F 47.7 °F 68% 29.93 in 10.0 mi SSW 12.7 mph - N/A   Clear
2:15 AM 58.5 °F 47.8 °F 68% 29.93 in 10.0 mi SSW 11.5 mph - N/A   Clear
2:35 AM 57.2 °F 47.5 °F 70% 29.93 in 10.0 mi SSW 11.5 mph - N/A   Clear
2:55 AM 56.5 °F 47.3 °F 71% 29.93 in 10.0 mi South 10.4 mph - N/A   Clear
3:15 AM 55.8 °F 47.3 °F 73% 29.93 in 10.0 mi South 11.5 mph - N/A   Clear
3:35 AM 55.8 °F 47.5 °F 74% 29.93 in 10.0 mi South 15.0 mph - N/A   Clear
3:55 AM 56.7 °F 47.7 °F 72% 29.93 in 10.0 mi South 16.1 mph - N/A   Clear
4:35 AM 57.2 °F 48.2 °F 72% 29.91 in 10.0 mi South 16.1 mph - N/A   Clear
4:55 AM 56.8 °F 48.4 °F 73% 29.92 in 10.0 mi SSW 16.1 mph - N/A   Clear
5:35 AM 57.4 °F 49.3 °F 74% 29.92 in 10.0 mi SSW 15.0 mph - N/A   Clear
5:55 AM 57.0 °F 49.5 °F 76% 29.92 in 10.0 mi SSW 12.7 mph - N/A   Clear
6:35 AM 56.5 °F 50.0 °F 79% 29.93 in 10.0 mi SW 12.7 mph - N/A   Clear
6:55 AM 55.8 °F 49.8 °F 80% 29.93 in 10.0 mi SW 11.5 mph - N/A   Clear
7:15 AM 54.5 °F 49.3 °F 83% 29.93 in 10.0 mi SSW 12.7 mph - N/A   Clear
7:35 AM 55.0 °F 50.2 °F 84% 29.92 in 10.0 mi SSW 13.8 mph - N/A   Clear
7:55 AM 55.6 °F 50.7 °F 84% 29.92 in 7.0 mi SSW 15.0 mph - N/A   Clear
8:15 AM 55.6 °F 51.3 °F 85% 29.93 in 7.0 mi SSW 17.3 mph - N/A   Clear
8:35 AM 56.8 °F 52.2 °F 84% 29.93 in 10.0 mi SSW 17.3 mph - N/A   Clear
8:55 AM 58.5 °F 53.1 °F 82% 29.93 in 10.0 mi SSW 19.6 mph 25.3 mph N/A   Clear
9:15 AM 59.7 °F 53.4 °F 80% 29.92 in 10.0 mi SSW 20.7 mph 26.5 mph N/A   Clear
9:35 AM 61.3 °F 53.8 °F 76% 29.93 in 10.0 mi SSW 24.2 mph 28.8 mph N/A   Clear
9:55 AM 63.3 °F 53.8 °F 71% 29.93 in 10.0 mi SSW 26.5 mph 34.5 mph N/A   Clear
10:15 AM 64.9 °F 53.6 °F 67% 29.93 in 10.0 mi SSW 23.0 mph 32.2 mph N/A   Clear
10:35 AM 66.4 °F 52.9 °F 62% 29.93 in 10.0 mi SW 21.9 mph 29.9 mph N/A   Clear
10:55 AM 68.5 °F 52.2 °F 56% 29.93 in 10.0 mi SSW 20.7 mph 28.8 mph N/A   Clear
11:15 AM 70.7 °F 50.7 °F 49% 29.93 in 10.0 mi SSW 21.9 mph - N/A   Clear
11:35 AM 72.1 °F 49.1 °F 44% 29.92 in 10.0 mi SW 19.6 mph - N/A   Clear
11:55 AM 73.8 °F 46.8 °F 38% 29.92 in 10.0 mi SW 24.2 mph 29.9 mph N/A   Clear
12:15 PM 75.0 °F 44.6 °F 34% 29.91 in 10.0 mi SW 23.0 mph 28.8 mph N/A   Clear
12:35 PM 77.5 °F 41.7 °F 28% 29.89 in 10.0 mi SW 23.0 mph 28.8 mph N/A   Clear
12:55 PM 78.6 °F 41.7 °F 27% 29.88 in 10.0 mi SSW 23.0 mph 27.6 mph N/A   Clear
1:15 PM 79.9 °F 41.4 °F 25% 29.88 in 10.0 mi SW 23.0 mph 27.6 mph N/A   Clear
1:35 PM 81.1 °F 38.8 °F 22% 29.87 in 10.0 mi SW 21.9 mph - N/A   Clear
1:55 PM 81.7 °F 38.8 °F 22% 29.86 in 10.0 mi SSW 24.2 mph 29.9 mph N/A   Clear
2:15 PM 82.8 °F 37.4 °F 20% 29.85 in 10.0 mi SW 25.3 mph 28.8 mph N/A   Clear
2:35 PM 83.5 °F 36.7 °F 19% 29.85 in 10.0 mi SW 23.0 mph 28.8 mph N/A   Clear
2:55 PM 84.0 °F 35.2 °F 17% 29.84 in 10.0 mi SSW 23.0 mph 27.6 mph N/A   Clear
3:15 PM 84.2 °F 34.0 °F 17% 29.84 in 10.0 mi SW 23.0 mph 27.6 mph N/A   Clear
3:35 PM 84.4 °F 34.2 °F 17% 29.85 in 10.0 mi SSW 21.9 mph 26.5 mph N/A   Clear
3:55 PM 84.0 °F 33.6 °F 16% 29.85 in 10.0 mi SW 20.7 mph - N/A   Clear
4:15 PM 83.3 °F 34.5 °F 17% 29.84 in 10.0 mi SSW 18.4 mph - N/A   Clear
4:35 PM 82.9 °F 34.9 °F 18% 29.84 in 10.0 mi SSW 17.3 mph 23.0 mph N/A   Clear
4:55 PM 81.5 °F 36.0 °F 19% 29.84 in 10.0 mi SSW 18.4 mph - N/A   Clear
5:15 PM 80.4 °F 36.5 °F 21% 29.84 in 10.0 mi SSW 13.8 mph 20.7 mph N/A   Clear
5:35 PM 78.6 °F 36.0 °F 21% 29.85 in 10.0 mi SSW 12.7 mph - N/A   Clear
5:55 PM 76.8 °F 36.7 °F 23% 29.86 in 10.0 mi SSW 11.5 mph - N/A   Clear
6:15 PM 76.1 °F 36.1 °F 23% 29.86 in 10.0 mi SW 13.8 mph - N/A   Clear
6:35 PM 72.7 °F 35.8 °F 26% 29.87 in 10.0 mi SW 9.2 mph - N/A   Clear
6:55 PM 70.2 °F 35.4 °F 28% 29.88 in 10.0 mi SSW 8.1 mph - N/A   Clear
7:15 PM 68.9 °F 35.2 °F 29% 29.89 in 10.0 mi WSW 6.9 mph - N/A   Clear
7:35 PM 68.7 °F 34.9 °F 29% 29.89 in 10.0 mi WSW 8.1 mph - N/A   Clear
8:15 PM 66.4 °F 33.1 °F 29% 29.90 in 10.0 mi SW 10.4 mph - N/A   Clear
8:35 PM 64.4 °F 32.7 °F 31% 29.91 in 10.0 mi SW 9.2 mph - N/A   Clear
8:55 PM 62.2 °F 32.2 °F 32% 29.91 in 10.0 mi SSW 10.4 mph - N/A   Clear
9:15 PM 60.1 °F 32.0 °F 35% 29.91 in 10.0 mi SW 6.9 mph - N/A   Clear
9:35 PM 59.2 °F 32.2 °F 36% 29.92 in 10.0 mi SW 9.2 mph - N/A   Clear
9:55 PM 58.3 °F 32.7 °F 38% 29.93 in 10.0 mi SSW 10.4 mph - N/A   Clear
10:15 PM 57.9 °F 32.7 °F 39% 29.94 in 10.0 mi West 9.2 mph - N/A   Clear
10:35 PM 55.4 °F 31.8 °F 41% 29.94 in 10.0 mi WSW 10.4 mph - N/A   Clear
10:55 PM 55.9 °F 31.3 °F 39% 29.96 in 10.0 mi West 10.4 mph - N/A   Clear
11:15 PM 53.6 °F 30.4 °F 41% 29.96 in 10.0 mi WNW 9.2 mph - N/A   Clear
11:35 PM 54.1 °F 28.4 °F 37% 29.97 in 10.0 mi NNW 8.1 mph - N/A   Clear
11:55 PM 54.0 °F 27.9 °F 37% 29.97 in 10.0 mi North 5.8 mph - N/A   Clear